Time,TemperatureF,DewpointF,PressureIn,WindDirection,WindDirectionDegrees,WindSpeedMPH,WindSpeedGustMPH,Humidity,HourlyPrecipIn,Conditions,Clouds,dailyrainin,SoftwareType,DateUTC
2012-08-25 00:00:00,82.7,62.2,29.94,ENE,75,3.6,5.4,50,0.00,,,0.00,VWS V13.01,2012-08-25 05:00:00,
2012-08-25 00:05:00,82.5,62.0,29.94,East,96,0.0,2.7,50,0.00,,,0.00,VWS V13.01,2012-08-25 05:05:00,
2012-08-25 00:10:00,82.3,62.4,29.94,NE,49,2.2,5.4,51,0.00,,,0.00,VWS V13.01,2012-08-25 05:10:00,
2012-08-25 00:15:00,82.3,62.4,29.94,ESE,104,2.2,3.1,51,0.00,,,0.00,VWS V13.01,2012-08-25 05:15:00,
2012-08-25 00:20:00,82.2,62.2,29.94,ESE,105,4.0,4.0,51,0.00,,,0.00,VWS V13.01,2012-08-25 05:20:00,
2012-08-25 00:25:00,82.0,62.6,29.94,ESE,102,2.2,3.1,52,0.00,,,0.00,VWS V13.01,2012-08-25 05:25:00,
2012-08-25 00:30:00,81.8,62.5,29.91,NE,54,4.0,4.9,52,0.00,,,0.00,VWS V13.01,2012-08-25 05:30:00,
2012-08-25 00:35:00,81.8,62.5,29.91,NE,56,3.1,3.6,52,0.00,,,0.00,VWS V13.01,2012-08-25 05:35:00,
2012-08-25 00:40:00,81.6,62.8,29.91,East,94,2.7,4.0,53,0.00,,,0.00,VWS V13.01,2012-08-25 05:40:00,
2012-08-25 00:45:00,81.6,62.8,29.91,East,90,2.7,3.6,53,0.00,,,0.00,VWS V13.01,2012-08-25 05:45:00,
2012-08-25 00:50:00,81.4,62.7,29.91,ESE,112,2.7,2.7,53,0.00,,,0.00,VWS V13.01,2012-08-25 05:50:00,
2012-08-25 00:55:00,81.3,63.0,29.91,East,91,2.2,3.1,54,0.00,,,0.00,VWS V13.01,2012-08-25 05:55:00,
2012-08-25 01:00:00,81.1,62.9,29.91,ESE,110,4.9,4.9,54,0.00,,,0.00,VWS V13.01,2012-08-25 06:00:00,
2012-08-25 01:05:00,81.1,62.9,29.91,ENE,68,3.1,5.8,54,0.00,,,0.00,VWS V13.01,2012-08-25 06:05:00,
2012-08-25 01:10:00,80.9,63.2,29.91,NE,52,0.0,3.1,55,0.00,,,0.00,VWS V13.01,2012-08-25 06:10:00,
2012-08-25 01:15:00,80.7,63.1,29.91,NE,46,3.1,3.1,55,0.00,,,0.00,VWS V13.01,2012-08-25 06:15:00,
2012-08-25 01:20:00,80.7,63.1,29.91,East,83,2.7,3.6,55,0.00,,,0.00,VWS V13.01,2012-08-25 06:20:00,
2012-08-25 01:25:00,80.5,63.4,29.91,NE,51,2.2,3.1,56,0.00,,,0.00,VWS V13.01,2012-08-25 06:25:00,
2012-08-25 01:30:00,80.4,63.2,29.91,NE,50,0.0,0.0,56,0.00,,,0.00,VWS V13.01,2012-08-25 06:30:00,
2012-08-25 01:35:00,80.4,63.2,29.91,ENE,60,2.7,2.7,56,0.00,,,0.00,VWS V13.01,2012-08-25 06:35:00,
2012-08-25 01:40:00,80.2,63.1,29.91,ENE,57,0.0,0.0,56,0.00,,,0.00,VWS V13.01,2012-08-25 06:40:00,
2012-08-25 01:45:00,80.2,63.6,29.91,East,91,0.0,2.7,57,0.00,,,0.00,VWS V13.01,2012-08-25 06:45:00,
2012-08-25 01:50:00,80.2,63.6,29.91,NNE,33,2.2,3.6,57,0.00,,,0.00,VWS V13.01,2012-08-25 06:50:00,
2012-08-25 01:55:00,80.2,63.6,29.91,NE,41,3.1,3.1,57,0.00,,,0.00,VWS V13.01,2012-08-25 06:55:00,
2012-08-25 02:00:00,80.2,63.6,29.91,ENE,68,2.7,4.0,57,0.00,,,0.00,VWS V13.01,2012-08-25 07:00:00,
2012-08-25 02:05:00,80.2,63.1,29.91,ENE,77,4.9,4.9,56,0.00,,,0.00,VWS V13.01,2012-08-25 07:05:00,
2012-08-25 02:10:00,80.4,63.2,29.91,NNE,29,2.2,3.6,56,0.00,,,0.00,VWS V13.01,2012-08-25 07:10:00,
2012-08-25 02:14:00,80.2,63.1,29.91,East,90,3.1,5.4,56,0.00,,,0.00,VWS V13.01,2012-08-25 07:14:00,
2012-08-25 02:19:00,80.2,63.1,29.91,ENE,75,3.1,4.0,56,0.00,,,0.00,VWS V13.01,2012-08-25 07:19:00,
2012-08-25 02:24:00,80.0,62.9,29.91,ENE,74,4.0,4.9,56,0.00,,,0.00,VWS V13.01,2012-08-25 07:24:00,
2012-08-25 02:30:00,80.0,63.4,29.91,ENE,71,4.0,4.9,57,0.00,,,0.00,VWS V13.01,2012-08-25 07:30:00,
2012-08-25 02:35:00,80.0,63.4,29.91,NE,53,2.7,2.7,57,0.00,,,0.00,VWS V13.01,2012-08-25 07:35:00,
2012-08-25 02:39:00,80.0,63.4,29.91,ENE,69,5.8,5.8,57,0.00,,,0.00,VWS V13.01,2012-08-25 07:39:00,
2012-08-25 02:44:00,80.0,63.9,29.91,East,86,6.7,6.7,58,0.00,,,0.00,VWS V13.01,2012-08-25 07:44:00,
2012-08-25 02:49:00,79.8,63.7,29.91,SE,139,3.1,4.0,58,0.00,,,0.00,VWS V13.01,2012-08-25 07:49:00,
2012-08-25 02:54:00,79.8,64.2,29.91,ENE,67,8.3,8.3,59,0.00,,,0.00,VWS V13.01,2012-08-25 07:54:00,
2012-08-25 02:59:00,79.6,64.5,29.91,East,100,8.1,8.1,60,0.00,,,0.00,VWS V13.01,2012-08-25 07:59:00,
2012-08-25 03:04:00,79.5,64.8,29.91,ESE,110,5.4,5.4,61,0.00,,,0.00,VWS V13.01,2012-08-25 08:04:00,
2012-08-25 03:09:00,79.5,65.3,29.91,East,93,4.0,4.0,62,0.00,,,0.00,VWS V13.01,2012-08-25 08:09:00,
2012-08-25 03:14:00,79.3,65.6,29.91,East,83,3.6,3.6,63,0.00,,,0.00,VWS V13.01,2012-08-25 08:14:00,
2012-08-25 03:19:00,79.1,65.9,29.91,SE,138,5.8,5.8,64,0.00,,,0.00,VWS V13.01,2012-08-25 08:19:00,
2012-08-25 03:24:00,78.9,66.2,29.91,ESE,117,3.1,5.4,65,0.00,,,0.00,VWS V13.01,2012-08-25 08:24:00,
2012-08-25 03:29:00,78.7,66.4,29.91,ESE,105,4.9,6.3,66,0.00,,,0.00,VWS V13.01,2012-08-25 08:29:00,
2012-08-25 03:34:00,78.6,66.7,29.91,East,87,5.8,6.3,67,0.00,,,0.00,VWS V13.01,2012-08-25 08:34:00,
2012-08-25 03:39:00,78.4,66.9,29.91,ESE,120,6.3,6.3,68,0.00,,,0.00,VWS V13.01,2012-08-25 08:39:00,
2012-08-25 03:44:00,78.2,67.2,29.91,East,82,2.7,2.7,69,0.00,,,0.00,VWS V13.01,2012-08-25 08:44:00,
2012-08-25 03:49:00,78.2,67.2,29.91,ENE,68,2.7,4.0,69,0.00,,,0.00,VWS V13.01,2012-08-25 08:49:00,
2012-08-25 03:54:00,78.0,67.4,29.91,ESE,103,2.7,3.1,70,0.00,,,0.00,VWS V13.01,2012-08-25 08:54:00,
2012-08-25 03:59:00,78.0,67.4,29.91,East,93,2.2,3.6,70,0.00,,,0.00,VWS V13.01,2012-08-25 08:59:00,
2012-08-25 04:04:00,78.0,67.4,29.91,ESE,105,3.6,5.4,70,0.00,,,0.00,VWS V13.01,2012-08-25 09:04:00,
2012-08-25 04:09:00,78.0,67.4,29.91,SE,125,6.3,6.3,70,0.00,,,0.00,VWS V13.01,2012-08-25 09:09:00,
2012-08-25 04:14:00,78.2,67.2,29.91,East,89,4.9,4.9,69,0.00,,,0.00,VWS V13.01,2012-08-25 09:14:00,
2012-08-25 04:19:00,78.2,67.2,29.91,East,86,5.4,5.4,69,0.00,,,0.00,VWS V13.01,2012-08-25 09:19:00,
2012-08-25 04:24:00,78.2,67.6,29.91,SE,140,3.1,3.1,70,0.00,,,0.00,VWS V13.01,2012-08-25 09:24:00,
2012-08-25 04:29:00,78.0,67.4,29.91,East,92,5.8,5.8,70,0.00,,,0.00,VWS V13.01,2012-08-25 09:29:00,
2012-08-25 04:34:00,78.0,67.9,29.91,East,80,3.1,6.3,71,0.00,,,0.00,VWS V13.01,2012-08-25 09:34:00,
2012-08-25 04:39:00,78.0,67.9,29.91,ESE,120,8.3,8.3,71,0.00,,,0.00,VWS V13.01,2012-08-25 09:39:00,
2012-08-25 04:44:00,77.8,67.7,29.91,East,86,3.6,3.6,71,0.00,,,0.00,VWS V13.01,2012-08-25 09:44:00,
2012-08-25 04:49:00,77.8,68.1,29.91,ESE,106,3.1,3.1,72,0.00,,,0.00,VWS V13.01,2012-08-25 09:49:00,
2012-08-25 04:54:00,77.8,68.1,29.91,East,89,0.0,2.7,72,0.00,,,0.00,VWS V13.01,2012-08-25 09:54:00,
2012-08-25 04:59:00,77.7,67.9,29.91,SE,129,5.4,5.4,72,0.00,,,0.00,VWS V13.01,2012-08-25 09:59:00,
2012-08-25 05:04:00,77.7,68.3,29.91,ENE,73,3.6,3.6,73,0.00,,,0.00,VWS V13.01,2012-08-25 10:04:00,
2012-08-25 05:09:00,77.7,68.3,29.91,SE,125,5.4,5.4,73,0.00,,,0.00,VWS V13.01,2012-08-25 10:09:00,
2012-08-25 05:14:00,77.7,68.3,29.91,East,94,3.6,3.6,73,0.00,,,0.00,VWS V13.01,2012-08-25 10:14:00,
2012-08-25 05:19:00,77.7,68.7,29.91,ESE,106,3.1,5.8,74,0.00,,,0.00,VWS V13.01,2012-08-25 10:19:00,
2012-08-25 05:24:00,77.7,68.7,29.91,East,87,0.0,3.6,74,0.00,,,0.00,VWS V13.01,2012-08-25 10:24:00,
2012-08-25 05:29:00,77.7,68.7,29.91,ENE,63,4.0,4.0,74,0.00,,,0.00,VWS V13.01,2012-08-25 10:29:00,
2012-08-25 05:34:00,77.7,68.7,29.91,East,93,3.6,4.0,74,0.00,,,0.00,VWS V13.01,2012-08-25 10:34:00,
2012-08-25 05:39:00,77.7,68.7,29.91,East,98,2.7,4.0,74,0.00,,,0.00,VWS V13.01,2012-08-25 10:39:00,
2012-08-25 05:44:00,77.7,69.1,29.91,ESE,119,3.1,3.1,75,0.00,,,0.00,VWS V13.01,2012-08-25 10:44:00,
2012-08-25 05:49:00,77.7,69.1,29.91,East,96,3.6,4.9,75,0.00,,,0.00,VWS V13.01,2012-08-25 10:49:00,
2012-08-25 05:54:00,77.7,69.1,29.91,ESE,119,0.0,0.0,75,0.00,,,0.00,VWS V13.01,2012-08-25 10:54:00,
2012-08-25 05:59:00,77.7,69.1,29.91,ESE,104,0.0,0.0,75,0.00,,,0.00,VWS V13.01,2012-08-25 10:59:00,
2012-08-25 06:04:00,77.7,69.5,29.91,ESE,122,3.1,4.9,76,0.00,,,0.00,VWS V13.01,2012-08-25 11:04:00,
2012-08-25 06:09:00,77.5,69.3,29.91,ENE,73,4.0,4.0,76,0.00,,,0.00,VWS V13.01,2012-08-25 11:09:00,
2012-08-25 06:14:00,77.5,69.3,29.91,East,84,2.7,2.7,76,0.00,,,0.00,VWS V13.01,2012-08-25 11:14:00,
2012-08-25 06:19:00,77.5,69.7,29.91,SE,127,3.6,3.6,77,0.00,,,0.00,VWS V13.01,2012-08-25 11:19:00,
2012-08-25 06:24:00,77.5,69.7,29.91,East,90,2.2,3.1,77,0.00,,,0.00,VWS V13.01,2012-08-25 11:24:00,
2012-08-25 06:29:00,77.5,69.7,29.91,East,94,2.7,3.1,77,0.00,,,0.00,VWS V13.01,2012-08-25 11:29:00,
2012-08-25 06:34:00,77.5,69.7,29.91,ESE,115,2.7,3.6,77,0.00,,,0.00,VWS V13.01,2012-08-25 11:34:00,
2012-08-25 06:39:00,77.5,69.7,29.91,East,85,0.0,0.0,77,0.00,,,0.00,VWS V13.01,2012-08-25 11:39:00,
2012-08-25 06:44:00,77.5,69.7,29.91,East,100,0.0,0.0,77,0.00,,,0.00,VWS V13.01,2012-08-25 11:44:00,
2012-08-25 06:49:00,77.5,69.7,29.91,ENE,74,2.7,2.7,77,0.00,,,0.00,VWS V13.01,2012-08-25 11:49:00,
2012-08-25 06:54:00,77.5,69.7,29.91,NE,49,2.7,2.7,77,0.00,,,0.00,VWS V13.01,2012-08-25 11:54:00,
2012-08-25 06:59:00,77.5,69.7,29.91,NE,45,3.6,3.6,77,0.00,,,0.00,VWS V13.01,2012-08-25 11:59:00,
2012-08-25 07:04:00,77.5,69.7,29.91,NE,47,3.1,3.1,77,0.00,,,0.00,VWS V13.01,2012-08-25 12:04:00,
2012-08-25 07:09:00,77.5,69.7,29.91,ENE,68,2.7,2.7,77,0.00,,,0.00,VWS V13.01,2012-08-25 12:09:00,
2012-08-25 07:14:00,77.5,70.1,29.91,NE,55,3.6,3.6,78,0.00,,,0.00,VWS V13.01,2012-08-25 12:14:00,
2012-08-25 07:19:00,77.3,69.9,29.91,NE,39,3.1,3.1,78,0.00,,,0.00,VWS V13.01,2012-08-25 12:19:00,
2012-08-25 07:24:00,77.3,70.3,29.91,ENE,71,2.2,2.2,79,0.00,,,0.00,VWS V13.01,2012-08-25 12:24:00,
2012-08-25 07:29:00,77.1,70.1,29.91,NE,49,2.7,2.7,79,0.00,,,0.00,VWS V13.01,2012-08-25 12:29:00,
2012-08-25 07:34:00,77.1,70.1,29.94,NE,52,3.6,3.6,79,0.00,,,0.00,VWS V13.01,2012-08-25 12:34:00,
2012-08-25 07:39:00,77.3,70.3,29.94,ENE,65,0.0,0.0,79,0.00,,,0.00,VWS V13.01,2012-08-25 12:39:00,
2012-08-25 07:44:00,77.3,69.9,29.94,ENE,77,3.6,4.0,78,0.00,,,0.00,VWS V13.01,2012-08-25 12:44:00,
2012-08-25 07:49:00,77.3,70.3,29.94,NE,52,2.7,2.7,79,0.00,,,0.00,VWS V13.01,2012-08-25 12:49:00,
2012-08-25 07:54:00,77.3,69.9,29.94,East,100,5.4,5.4,78,0.00,,,0.00,VWS V13.01,2012-08-25 12:54:00,
2012-08-25 07:59:00,77.5,70.5,29.94,ENE,60,0.0,0.0,79,0.00,,,0.00,VWS V13.01,2012-08-25 12:59:00,
2012-08-25 08:04:00,77.5,70.1,29.91,NE,43,3.1,3.1,78,0.00,,,0.00,VWS V13.01,2012-08-25 13:04:00,
2012-08-25 08:09:00,77.5,70.5,29.91,ENE,67,2.2,3.6,79,0.00,,,0.00,VWS V13.01,2012-08-25 13:09:00,
2012-08-25 08:14:00,77.5,70.5,29.91,NE,54,0.0,0.0,79,0.00,,,0.00,VWS V13.01,2012-08-25 13:14:00,
2012-08-25 08:19:00,77.5,70.5,29.94,NE,56,0.0,4.0,79,0.00,,,0.00,VWS V13.01,2012-08-25 13:19:00,
2012-08-25 08:24:00,77.5,70.5,29.94,East,94,0.0,0.0,79,0.00,,,0.00,VWS V13.01,2012-08-25 13:24:00,
2012-08-25 08:29:00,77.5,70.8,29.94,East,80,0.0,0.0,80,0.00,,,0.00,VWS V13.01,2012-08-25 13:29:00,
2012-08-25 08:34:00,77.3,71.0,29.94,East,89,2.7,3.1,81,0.00,,,0.00,VWS V13.01,2012-08-25 13:34:00,
2012-08-25 08:39:00,77.1,71.2,29.94,East,89,2.7,2.7,82,0.00,,,0.00,VWS V13.01,2012-08-25 13:39:00,
2012-08-25 08:44:00,77.1,71.9,29.94,NNE,20,0.0,0.0,84,0.00,,,0.00,VWS V13.01,2012-08-25 13:44:00,
2012-08-25 08:49:00,77.1,71.9,29.94,ESE,104,0.0,0.0,84,0.00,,,0.00,VWS V13.01,2012-08-25 13:49:00,
2012-08-25 08:54:00,76.9,72.1,29.94,East,82,0.0,0.0,85,0.00,,,0.00,VWS V13.01,2012-08-25 13:54:00,
2012-08-25 08:59:00,77.1,72.6,29.94,NNE,19,0.0,0.0,86,0.08,,,0.08,VWS V13.01,2012-08-25 13:59:00,
2012-08-25 09:04:00,76.9,72.8,29.94,NNE,19,0.0,0.0,87,0.08,,,0.08,VWS V13.01,2012-08-25 14:04:00,
2012-08-25 09:09:00,76.8,72.6,29.94,NNE,19,0.0,0.0,87,0.08,,,0.08,VWS V13.01,2012-08-25 14:09:00,
2012-08-25 09:14:00,76.8,73.3,29.94,NNE,19,0.0,0.0,89,0.08,,,0.08,VWS V13.01,2012-08-25 14:14:00,
2012-08-25 09:19:00,76.8,73.6,29.94,NNE,24,0.0,0.0,90,0.08,,,0.08,VWS V13.01,2012-08-25 14:19:00,
2012-08-25 09:24:00,76.8,73.6,29.94,NNW,347,0.0,0.0,90,0.08,,,0.08,VWS V13.01,2012-08-25 14:24:00,
2012-08-25 09:29:00,76.8,73.6,29.94,East,89,2.7,2.7,90,0.08,,,0.08,VWS V13.01,2012-08-25 14:29:00,
2012-08-25 09:34:00,76.8,73.9,29.94,ENE,76,0.0,0.0,91,0.08,,,0.08,VWS V13.01,2012-08-25 14:34:00,
2012-08-25 09:39:00,76.9,74.1,29.94,ENE,74,5.4,5.4,91,0.08,,,0.08,VWS V13.01,2012-08-25 14:39:00,
2012-08-25 09:44:00,76.9,73.4,29.94,NE,46,3.6,3.6,89,0.08,,,0.08,VWS V13.01,2012-08-25 14:44:00,
2012-08-25 09:49:00,77.1,73.3,29.94,ENE,73,4.0,6.3,88,0.08,,,0.08,VWS V13.01,2012-08-25 14:49:00,
2012-08-25 09:54:00,77.5,73.3,29.94,East,101,3.1,5.4,87,0.08,,,0.08,VWS V13.01,2012-08-25 14:54:00,
2012-08-25 09:59:00,77.7,72.8,29.94,ENE,65,0.0,2.7,85,0.04,,,0.08,VWS V13.01,2012-08-25 14:59:00,
2012-08-25 10:04:00,77.8,73.0,29.94,ENE,71,4.0,4.9,85,0.00,,,0.08,VWS V13.01,2012-08-25 15:04:00,
2012-08-25 10:09:00,78.2,71.5,29.94,East,94,4.0,7.2,80,0.00,,,0.08,VWS V13.01,2012-08-25 15:09:00,
2012-08-25 10:13:00,78.7,72.8,29.94,East,89,3.6,4.0,82,0.00,,,0.08,VWS V13.01,2012-08-25 15:13:00,
2012-08-25 10:18:00,79.3,72.6,29.94,East,84,3.6,3.6,80,0.00,,,0.08,VWS V13.01,2012-08-25 15:18:00,
2012-08-25 10:23:00,79.5,71.6,29.94,East,83,0.0,3.6,77,0.00,,,0.08,VWS V13.01,2012-08-25 15:23:00,
2012-08-25 10:28:00,79.8,71.2,29.94,East,97,5.4,5.4,75,0.00,,,0.08,VWS V13.01,2012-08-25 15:28:00,
2012-08-25 10:33:00,80.2,69.9,29.94,NE,41,8.3,8.3,71,0.00,,,0.08,VWS V13.01,2012-08-25 15:33:00,
2012-08-25 10:38:00,80.5,70.7,29.94,ESE,112,4.9,5.4,72,0.00,,,0.08,VWS V13.01,2012-08-25 15:38:00,
2012-08-25 10:43:00,81.1,70.0,29.94,ENE,70,2.7,6.3,69,0.00,,,0.08,VWS V13.01,2012-08-25 15:43:00,
2012-08-25 10:48:00,81.3,69.7,29.94,ENE,75,3.6,5.4,68,0.00,,,0.08,VWS V13.01,2012-08-25 15:48:00,
2012-08-25 10:53:00,81.6,70.0,29.94,ENE,61,4.0,5.4,68,0.00,,,0.08,VWS V13.01,2012-08-25 15:53:00,
2012-08-25 10:58:00,82.2,69.7,29.94,ESE,123,5.8,5.8,66,0.00,,,0.08,VWS V13.01,2012-08-25 15:58:00,
2012-08-25 11:03:00,82.3,68.5,29.94,East,97,0.0,2.2,63,0.00,,,0.08,VWS V13.01,2012-08-25 16:03:00,
2012-08-25 11:08:00,83.2,67.9,29.94,NNE,32,3.1,4.9,60,0.00,,,0.08,VWS V13.01,2012-08-25 16:08:00,
2012-08-25 11:13:00,84.1,67.8,29.94,NE,54,2.2,3.1,58,0.00,,,0.08,VWS V13.01,2012-08-25 16:13:00,
2012-08-25 11:18:00,84.9,66.9,29.94,ESE,115,5.4,8.1,55,0.00,,,0.08,VWS V13.01,2012-08-25 16:18:00,
2012-08-25 11:23:00,84.7,67.8,29.94,SE,127,4.0,5.4,57,0.00,,,0.08,VWS V13.01,2012-08-25 16:23:00,
2012-08-25 11:28:00,84.5,66.1,29.94,ENE,73,8.7,10.5,54,0.00,,,0.08,VWS V13.01,2012-08-25 16:28:00,
2012-08-25 11:33:00,83.8,66.4,29.94,ENE,68,4.5,6.3,56,0.00,,,0.08,VWS V13.01,2012-08-25 16:33:00,
2012-08-25 11:38:00,83.6,66.3,29.94,ENE,78,10.1,10.5,56,0.00,,,0.08,VWS V13.01,2012-08-25 16:38:00,
2012-08-25 11:43:00,83.4,67.1,29.94,ESE,121,4.0,5.8,58,0.00,,,0.08,VWS V13.01,2012-08-25 16:43:00,
2012-08-25 11:48:00,83.6,67.3,29.94,East,84,5.4,5.8,58,0.00,,,0.08,VWS V13.01,2012-08-25 16:48:00,
2012-08-25 11:53:00,84.0,66.1,29.94,East,83,4.0,4.5,55,0.00,,,0.08,VWS V13.01,2012-08-25 16:53:00,
2012-08-25 11:58:00,84.7,67.3,29.94,ESE,120,3.1,5.4,56,0.00,,,0.08,VWS V13.01,2012-08-25 16:58:00,
2012-08-25 12:03:00,85.0,66.6,29.94,SE,135,5.4,8.1,54,0.00,,,0.08,VWS V13.01,2012-08-25 17:03:00,
2012-08-25 12:08:00,85.4,66.3,29.94,East,86,5.4,8.1,53,0.00,,,0.08,VWS V13.01,2012-08-25 17:08:00,
2012-08-25 12:13:00,85.9,66.8,29.94,ESE,109,3.1,4.9,53,0.00,,,0.08,VWS V13.01,2012-08-25 17:13:00,
2012-08-25 12:18:00,85.9,65.7,29.94,East,90,5.4,8.7,51,0.00,,,0.08,VWS V13.01,2012-08-25 17:18:00,
2012-08-25 12:23:00,85.6,66.0,29.94,ESE,111,4.9,8.3,52,0.00,,,0.08,VWS V13.01,2012-08-25 17:23:00,
2012-08-25 12:28:00,85.6,66.0,29.94,East,86,5.8,7.6,52,0.00,,,0.08,VWS V13.01,2012-08-25 17:28:00,
2012-08-25 12:33:00,85.9,65.7,29.94,ESE,107,5.8,8.7,51,0.00,,,0.08,VWS V13.01,2012-08-25 17:33:00,
2012-08-25 12:38:00,85.8,65.6,29.94,ENE,66,6.3,8.3,51,0.00,,,0.08,VWS V13.01,2012-08-25 17:38:00,
2012-08-25 12:43:00,85.2,66.2,29.94,ENE,74,6.3,10.1,53,0.00,,,0.08,VWS V13.01,2012-08-25 17:43:00,
2012-08-25 12:48:00,84.9,66.4,29.94,ESE,119,3.1,4.0,54,0.00,,,0.08,VWS V13.01,2012-08-25 17:48:00,
2012-08-25 12:54:00,85.0,66.6,29.94,ESE,119,3.1,4.9,54,0.00,,,0.08,VWS V13.01,2012-08-25 17:54:00,
2012-08-25 12:59:00,85.2,65.6,29.94,South,176,9.2,9.2,52,0.00,,,0.08,VWS V13.01,2012-08-25 17:59:00,
2012-08-25 13:03:00,85.8,65.6,29.94,SSE,166,3.1,5.8,51,0.00,,,0.08,VWS V13.01,2012-08-25 18:03:00,
2012-08-25 13:08:00,84.0,68.1,29.94,NW,315,3.6,4.0,59,0.00,,,0.08,VWS V13.01,2012-08-25 18:08:00,
2012-08-25 13:13:00,82.3,68.9,29.94,West,273,5.4,5.4,64,0.00,,,0.08,VWS V13.01,2012-08-25 18:13:00,
2012-08-25 13:18:00,81.3,71.0,29.94,NW,307,2.7,6.7,71,0.00,,,0.08,VWS V13.01,2012-08-25 18:18:00,
2012-08-25 13:23:00,80.9,71.0,29.94,East,91,4.0,4.0,72,0.00,,,0.08,VWS V13.01,2012-08-25 18:23:00,
2012-08-25 13:28:00,80.5,71.9,29.94,NNW,347,3.1,3.6,75,0.00,,,0.08,VWS V13.01,2012-08-25 18:28:00,
2012-08-25 13:33:00,80.2,71.9,29.94,SE,129,3.6,3.6,76,0.00,,,0.08,VWS V13.01,2012-08-25 18:33:00,
2012-08-25 13:38:00,80.2,71.5,29.94,NNE,12,2.2,2.7,75,0.00,,,0.08,VWS V13.01,2012-08-25 18:38:00,
2012-08-25 13:43:00,80.2,71.5,29.94,North,1,0.0,0.0,75,0.00,,,0.08,VWS V13.01,2012-08-25 18:43:00,
2012-08-25 13:48:00,80.5,72.3,29.94,NNW,345,0.0,0.0,76,0.00,,,0.08,VWS V13.01,2012-08-25 18:48:00,
2012-08-25 13:53:00,80.7,72.8,29.94,North,359,0.0,0.0,77,0.00,,,0.08,VWS V13.01,2012-08-25 18:53:00,
2012-08-25 13:58:00,80.7,73.2,29.94,NNE,15,0.0,0.0,78,0.00,,,0.08,VWS V13.01,2012-08-25 18:58:00,
2012-08-25 14:03:00,80.7,73.2,29.94,North,7,0.0,0.0,78,0.00,,,0.08,VWS V13.01,2012-08-25 19:03:00,
2012-08-25 14:08:00,80.7,73.2,29.94,NNW,346,0.0,0.0,78,0.00,,,0.08,VWS V13.01,2012-08-25 19:08:00,
2012-08-25 14:13:00,80.7,72.5,29.94,NNE,27,2.7,3.6,76,0.00,,,0.08,VWS V13.01,2012-08-25 19:13:00,
2012-08-25 14:18:00,80.7,72.8,29.94,NNE,16,2.7,3.1,77,0.00,,,0.08,VWS V13.01,2012-08-25 19:18:00,
2012-08-25 14:23:00,80.7,72.5,29.94,NNE,31,5.8,5.8,76,0.00,,,0.08,VWS V13.01,2012-08-25 19:23:00,
2012-08-25 14:28:00,80.9,73.0,29.94,NNE,28,3.6,3.6,77,0.00,,,0.08,VWS V13.01,2012-08-25 19:28:00,
2012-08-25 14:33:00,81.1,72.4,29.91,NNE,16,0.0,3.6,75,0.00,,,0.08,VWS V13.01,2012-08-25 19:33:00,
2012-08-25 14:38:00,81.1,72.0,29.91,North,9,2.7,3.6,74,0.00,,,0.08,VWS V13.01,2012-08-25 19:38:00,
2012-08-25 14:43:00,81.3,72.6,29.91,North,2,3.6,3.6,75,0.00,,,0.08,VWS V13.01,2012-08-25 19:43:00,
2012-08-25 14:48:00,81.3,72.6,29.91,North,353,3.1,4.0,75,0.00,,,0.08,VWS V13.01,2012-08-25 19:48:00,
2012-08-25 14:53:00,81.3,72.6,29.91,NNW,339,3.1,3.6,75,0.00,,,0.08,VWS V13.01,2012-08-25 19:53:00,
2012-08-25 14:58:00,81.4,72.4,29.91,NNW,341,2.2,3.1,74,0.00,,,0.08,VWS V13.01,2012-08-25 19:58:00,
2012-08-25 15:03:00,82.0,72.5,29.91,North,359,0.0,3.1,73,0.00,,,0.08,VWS V13.01,2012-08-25 20:03:00,
2012-08-25 15:08:00,82.5,70.0,29.91,NNE,22,5.4,5.8,66,0.00,,,0.08,VWS V13.01,2012-08-25 20:08:00,
2012-08-25 15:13:00,82.7,70.6,29.91,North,358,0.0,2.2,67,0.00,,,0.08,VWS V13.01,2012-08-25 20:13:00,
2012-08-25 15:18:00,83.2,70.3,29.91,NNW,328,2.7,4.0,65,0.00,,,0.08,VWS V13.01,2012-08-25 20:18:00,
2012-08-25 15:23:00,83.6,69.2,29.91,NW,307,3.6,5.4,62,0.00,,,0.08,VWS V13.01,2012-08-25 20:23:00,
2012-08-25 15:28:00,83.8,69.8,29.91,ENE,57,3.6,3.6,63,0.00,,,0.08,VWS V13.01,2012-08-25 20:28:00,
2012-08-25 15:33:00,84.1,68.3,29.91,NNW,340,2.7,4.9,59,0.00,,,0.08,VWS V13.01,2012-08-25 20:33:00,
2012-08-25 15:38:00,84.5,69.1,29.91,NNW,328,0.0,2.2,60,0.00,,,0.08,VWS V13.01,2012-08-25 20:38:00,
2012-08-25 15:43:00,85.4,67.9,29.91,NNE,28,4.0,4.0,56,0.00,,,0.08,VWS V13.01,2012-08-25 20:43:00,
2012-08-25 15:48:00,85.9,68.4,29.88,NNW,330,3.6,3.6,56,0.00,,,0.08,VWS V13.01,2012-08-25 20:48:00,
2012-08-25 15:53:00,86.1,68.1,29.88,NNW,342,2.7,3.1,55,0.00,,,0.08,VWS V13.01,2012-08-25 20:53:00,
2012-08-25 15:58:00,85.9,67.9,29.88,NNW,348,4.0,4.0,55,0.00,,,0.08,VWS V13.01,2012-08-25 20:58:00,
2012-08-25 16:03:00,85.9,67.9,29.88,NNW,328,4.0,4.0,55,0.00,,,0.08,VWS V13.01,2012-08-25 21:03:00,
2012-08-25 16:08:00,85.9,68.4,29.88,North,355,3.1,3.1,56,0.00,,,0.08,VWS V13.01,2012-08-25 21:08:00,
2012-08-25 16:13:00,86.3,68.2,29.88,NW,321,0.0,2.7,55,0.00,,,0.08,VWS V13.01,2012-08-25 21:13:00,
2012-08-25 16:18:00,86.8,68.8,29.88,NNW,337,0.0,2.7,55,0.00,,,0.08,VWS V13.01,2012-08-25 21:18:00,
2012-08-25 16:23:00,87.4,67.1,29.88,NW,306,0.0,4.0,51,0.00,,,0.08,VWS V13.01,2012-08-25 21:23:00,
2012-08-25 16:28:00,87.6,68.9,29.88,North,355,0.0,2.7,54,0.00,,,0.08,VWS V13.01,2012-08-25 21:28:00,
2012-08-25 16:33:00,88.1,68.3,29.88,NNE,25,3.1,4.0,52,0.00,,,0.08,VWS V13.01,2012-08-25 21:33:00,
2012-08-25 16:38:00,88.1,69.4,29.88,North,349,3.1,4.5,54,0.00,,,0.08,VWS V13.01,2012-08-25 21:38:00,
2012-08-25 16:43:00,88.3,68.4,29.88,North,6,3.6,3.6,52,0.00,,,0.08,VWS V13.01,2012-08-25 21:43:00,
2012-08-25 16:48:00,88.6,68.2,29.88,NNE,20,4.0,4.0,51,0.00,,,0.08,VWS V13.01,2012-08-25 21:48:00,
2012-08-25 16:53:00,89.4,67.7,29.88,NW,319,3.1,3.6,49,0.00,,,0.08,VWS V13.01,2012-08-25 21:53:00,
2012-08-25 16:58:00,90.1,68.4,29.88,WNW,299,3.6,3.6,49,0.00,,,0.08,VWS V13.01,2012-08-25 21:58:00,
2012-08-25 17:03:00,90.3,68.5,29.88,NNW,339,2.7,3.6,49,0.00,,,0.08,VWS V13.01,2012-08-25 22:03:00,
2012-08-25 17:08:00,90.6,68.3,29.88,WNW,296,3.1,4.0,48,0.00,,,0.08,VWS V13.01,2012-08-25 22:08:00,
2012-08-25 17:13:00,91.0,67.3,29.88,WNW,288,3.1,3.1,46,0.00,,,0.08,VWS V13.01,2012-08-25 22:13:00,
2012-08-25 17:18:00,91.3,66.4,29.88,WNW,295,4.0,4.0,44,0.00,,,0.08,VWS V13.01,2012-08-25 22:18:00,
2012-08-25 17:23:00,92.1,64.3,29.88,SW,232,2.2,2.7,40,0.00,,,0.08,VWS V13.01,2012-08-25 22:23:00,
2012-08-25 17:28:00,92.6,64.1,29.88,WSW,237,0.0,0.0,39,0.00,,,0.08,VWS V13.01,2012-08-25 22:28:00,
2012-08-25 17:33:00,93.1,63.8,29.85,NNE,20,0.0,0.0,38,0.00,,,0.08,VWS V13.01,2012-08-25 22:33:00,
2012-08-25 17:38:00,93.5,64.1,29.85,WSW,238,0.0,0.0,38,0.00,,,0.08,VWS V13.01,2012-08-25 22:38:00,
2012-08-25 17:43:00,93.7,64.3,29.85,East,82,3.1,3.6,38,0.00,,,0.08,VWS V13.01,2012-08-25 22:43:00,
2012-08-25 17:48:00,93.7,64.3,29.85,NNE,29,0.0,3.1,38,0.00,,,0.08,VWS V13.01,2012-08-25 22:48:00,
2012-08-25 17:53:00,94.2,60.7,29.85,SE,135,5.4,6.3,33,0.00,,,0.08,VWS V13.01,2012-08-25 22:53:00,
2012-08-25 17:58:00,94.0,65.3,29.85,WNW,292,0.0,0.0,39,0.00,,,0.08,VWS V13.01,2012-08-25 22:58:00,
2012-08-25 18:03:00,93.9,63.7,29.85,ESE,115,3.6,3.6,37,0.00,,,0.08,VWS V13.01,2012-08-25 23:03:00,
2012-08-25 18:08:00,93.9,61.3,29.85,ESE,120,2.7,3.1,34,0.00,,,0.08,VWS V13.01,2012-08-25 23:08:00,
2012-08-25 18:13:00,94.0,61.4,29.85,SE,143,2.7,2.7,34,0.00,,,0.08,VWS V13.01,2012-08-25 23:13:00,
2012-08-25 18:18:00,93.7,60.3,29.85,SSW,192,4.0,5.4,33,0.00,,,0.08,VWS V13.01,2012-08-25 23:18:00,
2012-08-25 18:23:00,93.5,60.1,29.85,South,191,5.4,8.3,33,0.00,,,0.08,VWS V13.01,2012-08-25 23:23:00,
2012-08-25 18:28:00,93.0,60.5,29.85,South,185,5.8,6.3,34,0.00,,,0.08,VWS V13.01,2012-08-25 23:28:00,
2012-08-25 18:33:00,92.4,60.8,29.85,South,170,3.1,3.1,35,0.00,,,0.08,VWS V13.01,2012-08-25 23:33:00,
2012-08-25 18:38:00,92.1,60.5,29.85,SE,143,5.8,6.7,35,0.00,,,0.08,VWS V13.01,2012-08-25 23:38:00,
2012-08-25 18:43:00,91.7,60.2,29.85,SE,125,3.6,3.6,35,0.00,,,0.08,VWS V13.01,2012-08-25 23:43:00,
2012-08-25 18:48:00,91.5,60.0,29.85,South,184,8.1,8.1,35,0.00,,,0.08,VWS V13.01,2012-08-25 23:48:00,
2012-08-25 18:54:00,91.2,58.9,29.85,SSE,165,3.1,3.6,34,0.00,,,0.08,VWS V13.01,2012-08-25 23:54:00,
2012-08-25 18:59:00,91.0,58.8,29.85,East,93,5.4,5.4,34,0.00,,,0.08,VWS V13.01,2012-08-25 23:59:00,
2012-08-25 19:04:00,90.8,58.6,29.85,SSE,147,5.8,5.8,34,0.00,,,0.08,VWS V13.01,2012-08-26 00:04:00,
2012-08-25 19:09:00,90.6,59.2,29.85,SSE,152,6.3,6.3,35,0.00,,,0.08,VWS V13.01,2012-08-26 00:09:00,
2012-08-25 19:13:00,90.6,59.2,29.85,East,100,3.6,7.6,35,0.00,,,0.08,VWS V13.01,2012-08-26 00:13:00,
2012-08-25 19:18:00,90.4,59.9,29.85,East,91,4.0,4.9,36,0.00,,,0.08,VWS V13.01,2012-08-26 00:18:00,
2012-08-25 19:23:00,90.4,59.9,29.85,ESE,119,5.8,5.8,36,0.00,,,0.08,VWS V13.01,2012-08-26 00:23:00,
2012-08-25 19:28:00,90.3,60.5,29.85,SE,143,3.1,3.1,37,0.00,,,0.08,VWS V13.01,2012-08-26 00:28:00,
2012-08-25 19:33:00,90.1,60.3,29.88,East,95,5.4,5.4,37,0.00,,,0.08,VWS V13.01,2012-08-26 00:33:00,
2012-08-25 19:38:00,90.1,61.1,29.88,ESE,116,5.4,5.4,38,0.00,,,0.08,VWS V13.01,2012-08-26 00:38:00,
2012-08-25 19:43:00,89.9,60.9,29.88,SE,138,7.6,8.3,38,0.00,,,0.08,VWS V13.01,2012-08-26 00:43:00,
2012-08-25 19:48:00,89.7,60.8,29.88,ESE,112,3.6,6.3,38,0.00,,,0.08,VWS V13.01,2012-08-26 00:48:00,
2012-08-25 19:53:00,89.5,60.6,29.88,SE,124,3.1,7.6,38,0.00,,,0.08,VWS V13.01,2012-08-26 00:53:00,
2012-08-25 19:58:00,89.4,60.4,29.88,ESE,110,3.1,5.4,38,0.00,,,0.08,VWS V13.01,2012-08-26 00:58:00,
2012-08-25 20:03:00,89.2,60.3,29.88,SE,127,2.7,2.7,38,0.00,,,0.08,VWS V13.01,2012-08-26 01:03:00,
2012-08-25 20:09:00,88.8,60.7,29.88,SE,124,2.7,3.6,39,0.00,,,0.08,VWS V13.01,2012-08-26 01:09:00,
2012-08-25 20:14:00,88.6,60.5,29.88,ESE,121,3.1,3.6,39,0.00,,,0.08,VWS V13.01,2012-08-26 01:14:00,
2012-08-25 20:19:00,88.5,60.4,29.88,ESE,112,3.6,3.6,39,0.00,,,0.08,VWS V13.01,2012-08-26 01:19:00,
2012-08-25 20:24:00,88.3,60.2,29.88,ESE,120,2.7,3.1,39,0.00,,,0.08,VWS V13.01,2012-08-26 01:24:00,
2012-08-25 20:29:00,88.1,60.8,29.88,East,100,0.0,2.2,40,0.00,,,0.08,VWS V13.01,2012-08-26 01:29:00,
2012-08-25 20:34:00,87.9,60.6,29.88,East,87,2.7,2.7,40,0.00,,,0.08,VWS V13.01,2012-08-26 01:34:00,
2012-08-25 20:39:00,87.7,60.4,29.88,East,87,2.7,2.7,40,0.00,,,0.08,VWS V13.01,2012-08-26 01:39:00,
2012-08-25 20:44:00,87.6,60.3,29.88,ESE,104,0.0,0.0,40,0.00,,,0.08,VWS V13.01,2012-08-26 01:44:00,
2012-08-25 20:49:00,87.4,60.8,29.91,East,82,2.7,3.1,41,0.00,,,0.08,VWS V13.01,2012-08-26 01:49:00,
2012-08-25 20:54:00,87.2,60.7,29.91,ESE,122,3.6,3.6,41,0.00,,,0.08,VWS V13.01,2012-08-26 01:54:00,
2012-08-25 20:59:00,87.0,61.2,29.91,East,82,4.9,5.8,42,0.00,,,0.08,VWS V13.01,2012-08-26 01:59:00,
2012-08-25 21:04:00,87.0,61.2,29.91,East,95,2.7,2.7,42,0.00,,,0.08,VWS V13.01,2012-08-26 02:04:00,
2012-08-25 21:09:00,87.0,61.8,29.91,ENE,61,5.8,6.3,43,0.00,,,0.08,VWS V13.01,2012-08-26 02:09:00,
2012-08-25 21:14:00,87.0,61.8,29.91,East,81,3.1,6.3,43,0.00,,,0.08,VWS V13.01,2012-08-26 02:14:00,
2012-08-25 21:19:00,86.8,61.7,29.91,NE,39,3.6,3.6,43,0.00,,,0.08,VWS V13.01,2012-08-26 02:19:00,
2012-08-25 21:24:00,86.7,61.5,29.91,East,101,2.7,3.1,43,0.00,,,0.08,VWS V13.01,2012-08-26 02:24:00,
2012-08-25 21:29:00,86.7,61.5,29.94,ESE,110,4.9,6.3,43,0.00,,,0.08,VWS V13.01,2012-08-26 02:29:00,
2012-08-25 21:34:00,86.5,61.3,29.94,ESE,112,4.9,6.3,43,0.00,,,0.08,VWS V13.01,2012-08-26 02:34:00,
2012-08-25 21:39:00,86.5,61.3,29.94,ESE,102,2.7,4.0,43,0.00,,,0.08,VWS V13.01,2012-08-26 02:39:00,
2012-08-25 21:44:00,86.5,62.0,29.94,East,84,3.6,4.0,44,0.00,,,0.08,VWS V13.01,2012-08-26 02:44:00,
2012-08-25 21:49:00,86.3,61.8,29.94,ESE,119,4.9,4.9,44,0.00,,,0.08,VWS V13.01,2012-08-26 02:49:00,
2012-08-25 21:54:00,86.1,61.7,29.94,ESE,118,4.0,5.4,44,0.00,,,0.08,VWS V13.01,2012-08-26 02:54:00,
2012-08-25 21:59:00,86.1,61.7,29.94,East,100,4.0,4.0,44,0.00,,,0.08,VWS V13.01,2012-08-26 02:59:00,
2012-08-25 22:04:00,85.9,61.5,29.94,East,85,5.4,5.4,44,0.00,,,0.08,VWS V13.01,2012-08-26 03:04:00,
2012-08-25 22:09:00,85.9,61.5,29.94,ESE,112,6.3,6.3,44,0.00,,,0.08,VWS V13.01,2012-08-26 03:09:00,
2012-08-25 22:14:00,85.9,62.2,29.94,ESE,123,6.3,6.3,45,0.00,,,0.08,VWS V13.01,2012-08-26 03:14:00,
2012-08-25 22:19:00,85.8,62.0,29.94,NE,53,3.6,4.0,45,0.00,,,0.08,VWS V13.01,2012-08-26 03:19:00,
2012-08-25 22:24:00,85.6,62.5,29.94,SE,140,3.6,4.0,46,0.00,,,0.08,VWS V13.01,2012-08-26 03:24:00,
2012-08-25 22:29:00,85.6,62.5,29.94,ENE,76,4.0,4.0,46,0.00,,,0.08,VWS V13.01,2012-08-26 03:29:00,
2012-08-25 22:34:00,85.2,62.7,29.94,ESE,119,4.9,5.8,47,0.00,,,0.08,VWS V13.01,2012-08-26 03:34:00,
2012-08-25 22:39:00,85.0,62.6,29.94,ENE,65,5.4,5.4,47,0.00,,,0.08,VWS V13.01,2012-08-26 03:39:00,
2012-08-25 22:44:00,85.0,63.2,29.94,ENE,72,3.6,3.6,48,0.00,,,0.08,VWS V13.01,2012-08-26 03:44:00,
2012-08-25 22:49:00,84.9,63.0,29.94,East,97,3.6,4.0,48,0.00,,,0.08,VWS V13.01,2012-08-26 03:49:00,
2012-08-25 22:54:00,84.7,63.4,29.94,SE,125,4.0,4.0,49,0.00,,,0.08,VWS V13.01,2012-08-26 03:54:00,
2012-08-25 22:59:00,84.5,63.3,29.91,ENE,78,2.7,3.6,49,0.00,,,0.08,VWS V13.01,2012-08-26 03:59:00,
2012-08-25 23:00:00,84.5,63.3,29.91,East,95,3.1,3.1,49,0.00,,,0.08,VWS V13.01,2012-08-26 04:00:00,
2012-08-25 23:05:00,84.3,63.1,29.91,ESE,103,2.7,5.4,49,0.00,,,0.08,VWS V13.01,2012-08-26 04:05:00,
2012-08-25 23:10:00,84.1,63.5,29.91,ENE,77,2.7,2.7,50,0.00,,,0.08,VWS V13.01,2012-08-26 04:10:00,
2012-08-25 23:15:00,84.0,63.3,29.94,ESE,120,4.0,4.9,50,0.00,,,0.08,VWS V13.01,2012-08-26 04:15:00,
2012-08-25 23:20:00,84.0,63.3,29.94,ENE,68,2.7,2.7,50,0.00,,,0.08,VWS V13.01,2012-08-26 04:20:00,
2012-08-25 23:25:00,83.6,63.0,29.94,East,86,4.0,6.3,50,0.00,,,0.08,VWS V13.01,2012-08-26 04:25:00,
2012-08-25 23:30:00,83.6,63.6,29.94,East,87,0.0,0.0,51,0.00,,,0.08,VWS V13.01,2012-08-26 04:30:00,
2012-08-25 23:35:00,83.2,63.2,29.94,ESE,110,2.7,2.7,51,0.00,,,0.08,VWS V13.01,2012-08-26 04:35:00,
2012-08-25 23:40:00,83.2,63.2,29.94,ENE,68,3.1,3.6,51,0.00,,,0.08,VWS V13.01,2012-08-26 04:40:00,
2012-08-25 23:45:00,83.1,63.6,29.94,ESE,103,2.7,4.0,52,0.00,,,0.08,VWS V13.01,2012-08-26 04:45:00,
2012-08-25 23:50:00,82.7,63.3,29.94,East,92,0.0,3.6,52,0.00,,,0.08,VWS V13.01,2012-08-26 04:50:00,
2012-08-25 23:55:00,82.5,63.1,29.94,East,81,3.6,4.0,52,0.00,,,0.08,VWS V13.01,2012-08-26 04:55:00,